OHWAU EGPF-EGEO

Flight info

Callsign OHWAU
Flight time 0h 22m
Altitude 9000
Route 13LOC DCT ELBAN DCT LOMON DCT D341Y
Aircraft PC12/L-SDFGRWY/S

Departure

Time 2026-04-26 12:58
Airport Glasgow Airport (EGPF)

Arrival

Time 2026-04-26 13:20
Airport Oban Airport (EGEO)
Time Latitude Longitude Altitude Speed Heading
2026-04-26 12:25 55.87003 -4.42624 23 ft 0 kts 333°
2026-04-26 12:52 55.87017 -4.42633 24 ft 5 kts 324°
2026-04-26 12:52 55.87031 -4.42719 24 ft 8 kts 285°
2026-04-26 12:52 55.87046 -4.42806 24 ft 6 kts 271°
2026-04-26 12:53 55.87015 -4.42833 24 ft 2 kts 201°
2026-04-26 12:53 55.86974 -4.42859 24 ft 9 kts 206°
2026-04-26 12:53 55.86907 -4.42923 24 ft 11 kts 207°
2026-04-26 12:53 55.86850 -4.43018 24 ft 13 kts 250°
2026-04-26 12:54 55.86818 -4.43190 24 ft 15 kts 254°
2026-04-26 12:54 55.86786 -4.43375 24 ft 16 kts 254°
2026-04-26 12:54 55.86756 -4.43568 24 ft 16 kts 253°
2026-04-26 12:54 55.86725 -4.43755 24 ft 14 kts 243°
2026-04-26 12:55 55.86650 -4.43895 23 ft 16 kts 223°
2026-04-26 12:55 55.86570 -4.44049 24 ft 17 kts 227°
2026-04-26 12:55 55.86485 -4.44206 24 ft 16 kts 228°
2026-04-26 12:55 55.86429 -4.44316 24 ft 11 kts 224°
2026-04-26 12:56 55.86380 -4.44407 24 ft 10 kts 225°
2026-04-26 12:56 55.86372 -4.44519 24 ft 7 kts 314°
2026-04-26 12:56 55.86424 -4.44539 24 ft 10 kts 18°
2026-04-26 12:56 55.86500 -4.44502 24 ft 11 kts 11°
2026-04-26 12:57 55.86570 -4.44486 23 ft 8 kts 34°
2026-04-26 12:57 55.86714 -4.44231 23 ft 66 kts 44°
2026-04-26 12:57 55.87144 -4.43393 166 ft 104 kts 47°
2026-04-26 12:58 55.88244 -4.41372 1010 ft 120 kts 42°
2026-04-26 12:58 55.88855 -4.40345 1463 ft 123 kts 41°
2026-04-26 12:58 55.89529 -4.39391 1899 ft 127 kts 24°
2026-04-26 12:58 55.90398 -4.39355 2251 ft 134 kts 338°
2026-04-26 12:59 55.91129 -4.40371 2623 ft 137 kts 310°
2026-04-26 12:59 55.91816 -4.41581 3003 ft 141 kts 311°
2026-04-26 12:59 55.92554 -4.42924 3112 ft 167 kts 312°
2026-04-26 12:59 55.93405 -4.44477 3356 ft 181 kts 311°
2026-04-26 13:00 55.94281 -4.46174 3704 ft 186 kts 310°
2026-04-26 13:00 55.95147 -4.47876 4052 ft 190 kts 308°
2026-04-26 13:00 55.95960 -4.49785 4247 ft 200 kts 304°
2026-04-26 13:00 55.96936 -4.51604 4428 ft 210 kts 327°
2026-04-26 13:01 55.98244 -4.52859 4624 ft 215 kts 331°
2026-04-26 13:01 55.99613 -4.54040 4814 ft 219 kts 332°
2026-04-26 13:01 56.00993 -4.55226 5004 ft 222 kts 331°
2026-04-26 13:01 56.02384 -4.56429 5194 ft 223 kts 331°
2026-04-26 13:02 56.03769 -4.57629 5380 ft 224 kts 331°
2026-04-26 13:02 56.05194 -4.58867 5572 ft 225 kts 331°
2026-04-26 13:02 56.06598 -4.60085 5763 ft 225 kts 331°
2026-04-26 13:02 56.08001 -4.61308 5956 ft 225 kts 330°
2026-04-26 13:03 56.09423 -4.62547 6147 ft 225 kts 331°
2026-04-26 13:03 56.10818 -4.63761 6334 ft 225 kts 331°
2026-04-26 13:03 56.12235 -4.64994 6523 ft 224 kts 331°
2026-04-26 13:03 56.13616 -4.66199 6775 ft 218 kts 330°
2026-04-26 13:04 56.14963 -4.67373 7043 ft 214 kts 329°
2026-04-26 13:04 56.16292 -4.68536 7314 ft 210 kts 329°
2026-04-26 13:04 56.17600 -4.69681 7584 ft 208 kts 329°
2026-04-26 13:04 56.18884 -4.70805 7852 ft 206 kts 329°
2026-04-26 13:05 56.20170 -4.71934 8127 ft 204 kts 329°
2026-04-26 13:05 56.21430 -4.73037 8400 ft 202 kts 328°
2026-04-26 13:05 56.22693 -4.74147 8674 ft 201 kts 328°
2026-04-26 13:05 56.23951 -4.75254 8909 ft 203 kts 328°
2026-04-26 13:06 56.25236 -4.76392 8938 ft 213 kts 328°
2026-04-26 13:06 56.26601 -4.77596 8938 ft 222 kts 329°
2026-04-26 13:06 56.27989 -4.78817 8934 ft 228 kts 329°
2026-04-26 13:06 56.29288 -4.80434 8940 ft 224 kts 301°
2026-04-26 13:07 56.29793 -4.82995 8944 ft 220 kts 278°
2026-04-26 13:07 56.30300 -4.85635 8930 ft 226 kts 292°
2026-04-26 13:07 56.31016 -4.88182 8936 ft 228 kts 293°
2026-04-26 13:07 56.31752 -4.90700 8937 ft 229 kts 294°
2026-04-26 13:08 56.32499 -4.93252 8941 ft 230 kts 294°
2026-04-26 13:08 56.33238 -4.95787 8942 ft 231 kts 294°
2026-04-26 13:08 56.33984 -4.98339 8934 ft 231 kts 294°
2026-04-26 13:08 56.34736 -5.00904 8940 ft 231 kts 294°
2026-04-26 13:09 56.35486 -5.03467 8940 ft 232 kts 294°
2026-04-26 13:09 56.36245 -5.06064 8944 ft 232 kts 294°
2026-04-26 13:09 56.36997 -5.08633 8838 ft 237 kts 294°
2026-04-26 13:09 56.37769 -5.11290 8582 ft 236 kts 295°
2026-04-26 13:10 56.38506 -5.13819 8327 ft 225 kts 294°
2026-04-26 13:10 56.39227 -5.16294 8070 ft 217 kts 294°
2026-04-26 13:10 56.39920 -5.18694 7814 ft 214 kts 294°
2026-04-26 13:10 56.40600 -5.21052 7562 ft 212 kts 294°
2026-04-26 13:11 56.41273 -5.23404 7323 ft 209 kts 294°
2026-04-26 13:11 56.41939 -5.25715 7118 ft 207 kts 294°
2026-04-26 13:11 56.42596 -5.28005 6913 ft 204 kts 294°
2026-04-26 13:11 56.43251 -5.30282 6717 ft 203 kts 294°
2026-04-26 13:12 56.43897 -5.32542 6506 ft 202 kts 294°
2026-04-26 13:12 56.44536 -5.34774 6297 ft 201 kts 294°
2026-04-26 13:12 56.45162 -5.36942 6424 ft 184 kts 294°
2026-04-26 13:12 56.45734 -5.38877 6572 ft 170 kts 294°
2026-04-26 13:13 56.46279 -5.40695 6683 ft 160 kts 294°
2026-04-26 13:13 56.46809 -5.42433 6804 ft 160 kts 294°
2026-04-26 13:13 56.47370 -5.44291 6944 ft 177 kts 294°
2026-04-26 13:13 56.47986 -5.46363 7082 ft 193 kts 294°
2026-04-26 13:14 56.48631 -5.48590 6982 ft 215 kts 294°
2026-04-26 13:14 56.49317 -5.51050 6627 ft 219 kts 288°
2026-04-26 13:14 56.49233 -5.53632 6287 ft 210 kts 242°
2026-04-26 13:14 56.48142 -5.55294 5945 ft 210 kts 200°
2026-04-26 13:15 56.46684 -5.55501 5608 ft 212 kts 181°
2026-04-26 13:15 56.45225 -5.55381 5255 ft 212 kts 179°
2026-04-26 13:15 56.43751 -5.55214 4897 ft 213 kts 179°
2026-04-26 13:15 56.42777 -5.55098 4663 ft 212 kts 178°
2026-04-26 13:16 56.40793 -5.54893 4186 ft 212 kts 179°
2026-04-26 13:16 56.39346 -5.54748 3828 ft 204 kts 179°
2026-04-26 13:16 56.37987 -5.54435 3459 ft 194 kts 159°
2026-04-26 13:16 56.37135 -5.52728 3138 ft 188 kts 111°
2026-04-26 13:17 56.37150 -5.48474 2477 ft 148 kts 86°
2026-04-26 13:17 56.37418 -5.46807 2148 ft 135 kts 57°
2026-04-26 13:18 56.38909 -5.44798 1858 ft 134 kts 30°
2026-04-26 13:18 56.39705 -5.43901 1826 ft 134 kts 32°
2026-04-26 13:18 56.41261 -5.41958 1794 ft 137 kts 34°
2026-04-26 13:19 56.42019 -5.40962 1783 ft 125 kts 31°
2026-04-26 13:19 56.42802 -5.40462 1464 ft 120 kts
2026-04-26 13:19 56.43626 -5.40380 1035 ft 119 kts 360°
2026-04-26 13:19 56.44430 -5.40296 560 ft 114 kts
2026-04-26 13:20 56.45168 -5.40180 242 ft 99 kts
2026-04-26 13:20 56.45779 -5.40081 61 ft 76 kts 358°
2026-04-26 13:20 56.46185 -5.40019 23 ft 31 kts 352°
2026-04-26 13:20 56.46204 -5.39944 23 ft 9 kts 135°
2026-04-26 13:21 56.46139 -5.39856 23 ft 9 kts 145°
2026-04-26 13:21 56.46119 -5.39840 23 ft 0 kts 176°
2026-04-26 13:21 56.46118 -5.39840 23 ft 0 kts 178°